Regional Weather Roundup
Issued by NWS

Home | Current Version | Previous Version | Text Only | Print | Product List | Glossary Off
Versions: 1 2 3 4 5 6 7 8 9 10 11 12 13 14 15 16 17 18 19 20 21 22 23 24 25 26 27 28 29 30 31 32 33 34 35 36 37 38 39 40 41 42 43 44 45 46 47 48 49 50

000
ASUS43 KBIS 211110
RWRND

NORTH DAKOTA REGIONAL WEATHER ROUNDUP
NATIONAL WEATHER SERVICE BISMARCK ND
600 AM CDT FRI JUL 21 2017

NOTE: "FAIR" INDICATES FEW OR NO CLOUDS BELOW 12,000 FEET WITH NO
SIGNIFICANT WEATHER AND/OR OBSTRUCTIONS TO VISIBILITY.


NDZ001>003-009>011-017-211200-
NORTHWEST NORTH DAKOTA

CITY           SKY/WX    TMP DP  RH WIND       PRES   REMARKS
WILLISTON      CLEAR     66  59  78 NE8       29.80F
MINOT          CLOUDY    65  59  81 N14       29.81R
MINOT AFB      CLOUDY    63  59  88 N6        29.80R
$$

NDZ018>021-031>035-040>046-211200-
SOUTHWEST NORTH DAKOTA

CITY           SKY/WX    TMP DP  RH WIND       PRES   REMARKS
BISMARCK       MOCLDY    66  63  90 CALM      29.80R
DICKINSON      PTCLDY    68  62  81 S16       29.80R
GARRISON         N/A     61  59  93 S5        29.80R
HETTINGER ARPT MOCLDY    66  60  81 SW6       29.85F
$$

NDZ004>008-012>016-024-026-027-054-211200-
NORTHEAST NORTH DAKOTA

CITY           SKY/WX    TMP DP  RH WIND       PRES   REMARKS
GRAND FORKS    CLOUDY    71  68  90 SE9       29.81F
GRND FRKS AFB  CLOUDY    68  66  93 SE7       29.82F
DEVILS LAKE    MOCLDY    68  65  90 NE5       29.82S
$$

NDZ022-023-025-028>030-036>039-047>053-211200-
SOUTHEAST NORTH DAKOTA

CITY           SKY/WX    TMP DP  RH WIND       PRES   REMARKS
FARGO          CLOUDY    74  70  87 SE10      29.81F
JAMESTOWN      CLOUDY    67  64  90 E9        29.78F
$$




USA.gov is the U.S. government's official web portal to all federal, state and local government web resources and services.